[[{"header":{"parameterUnit":"m.s-1","parameterCategory":1,"la1":30.2992,"la2":30.254,"lo1":-89.0895,"lo2":-89.0443,"dy":0.0025,"dx":0.0025,"nx":19,"ny":19,"refTime":"2026-04-19T21:00:00:Z","depth":0,"parameterNumber":2,"parameterNumberName":"U-component_of_WINDS"},"data":[0,0,0,-6.8899,-6.8903,-6.9038,-6.9038,-6.9283,-6.9285,0,0,0,0,0,0,0,0,0,0,0,-6.8903,-6.8906,-6.8899,-6.8904,-6.9038,-6.9038,-6.9282,-6.9285,0,0,0,0,0,0,0,0,0,0,0,-6.8902,-6.8906,-6.891,-6.8904,-6.9038,-6.9038,-6.9281,-6.9154,0,0,0,0,0,0,0,0,0,0,-6.9011,-6.9057,-6.8905,-6.891,-6.8905,-6.9038,-6.9038,-6.9147,-6.9162,-6.9252,0,-6.9344,0,-6.9319,-6.9306,-6.9307,0,0,0,-6.8871,-6.9045,-6.9042,-6.891,-6.8907,-6.9038,-6.8968,-6.9154,-6.9172,-6.9273,-6.9347,-6.9354,-6.9323,-6.9308,-6.931,-6.9938,-6.9943,0,0,-6.8864,-6.8951,-6.903,-6.9055,-6.9039,-6.8964,-6.8973,-6.9164,-6.9251,-6.9348,-6.9359,-6.9327,-6.931,-6.9313,-6.9934,-6.9939,0,0,0,-6.8864,-6.8948,-6.8937,-6.9047,-6.9066,-6.8969,-6.8979,-6.9242,-6.9231,-6.9361,-6.933,-6.9312,-6.9316,-6.9929,-6.9936,-7.0241,0,0,0,-6.8858,-6.8948,-6.8936,-6.8991,-6.9064,-6.9156,-6.9054,-6.9218,-6.9237,-6.9329,-6.9312,-6.9319,-6.9924,-6.9933,-7.0222,-7.0371,0,0,0,-6.888,-6.8949,-6.8984,-6.8996,-6.9057,-6.915,-6.915,-6.922,-6.922,-6.9308,-6.932,-6.9921,-6.9931,-7.0205,-7.0342,-7.0561,0,0,0,-6.8928,-6.9255,-6.899,-6.9343,-6.9056,-6.9339,-6.9147,-6.9353,-6.9465,-6.9314,-6.9925,-6.9935,-7.0199,-7.0325,-7.0544,-7.0761,-7.0859,0,0,-6.9389,-6.9313,-6.9513,-6.9281,-6.9633,-6.9311,-6.9706,-6.9726,-6.9655,-6.9848,-6.9862,-7.0228,-7.0341,-7.0557,-7.1383,-7.1463,0,0,0,-6.9689,-6.9835,-6.9908,-7.0018,-7.0041,-7.0072,-7.0021,-7.0028,-7.0187,-6.9772,-7.0363,-7.0428,-7.0551,-7.0651,-7.0718,-7.0818,-6.9985,-6.9984,-6.9983,-7.0468,-7.0358,-7.0681,-7.0588,-7.0698,-7.0641,-7.0719,-7.0718,-7.0576,-7.0718,-7.0775,-7.129,-7.141,-7.1459,-7.1565,-7.0881,-7.0882,-7.0883,-7.0884,-7.1133,-7.132,-7.1122,-7.1365,-7.1247,-7.145,-7.1409,-7.1301,-7.1473,-7.1238,-7.1341,-7.1094,-7.155,-7.1636,-7.0906,-7.0902,-7.0899,-7.0897,-7.0896,-7.163,-7.17,-7.1703,-7.1849,-7.1974,-7.1867,-7.2041,-7.1927,-7.1821,-7.1924,-7.197,-7.1965,-7.1945,-7.1954,-7.1956,-7.1958,-7.1959,-7.196,-7.1962,-7.2145,-7.2137,-7.2297,-7.2348,-7.2402,-7.246,-7.2406,-7.2457,-7.2484,-7.2387,-7.2387,-7.2231,-7.1615,-7.1462,-7.1989,-7.1984,-7.198,-7.1978,-7.1976,-7.2859,-7.2679,-7.2927,-7.2982,-7.303,-7.3162,-7.3013,-7.3127,-7.3152,-7.3241,-7.3063,-7.2626,-7.2541,-7.2486,-7.2359,-7.3086,-7.3086,-7.3086,-7.3086,-7.3278,-7.3223,-7.3449,-7.3544,-7.3624,-7.3516,-7.3799,-7.376,-7.3692,-7.3701,-7.3579,-7.3401,-7.335,-7.3294,-7.3223,-7.3102,-7.4002,-7.4002,-7.4003,-7.371,-7.3658,-7.392,-7.385,-7.3879,-7.3908,-7.4169,-7.4287,-7.4172,-7.4038,-7.3705,-7.3666,-7.3377,-7.3289,-7.3147,-7.3038,-7.2815,0,0]},{"header":{"parameterUnit":"m.s-1","parameterCategory":1,"la1":30.2992,"la2":30.254,"lo1":-89.0895,"lo2":-89.0443,"dy":0.0025,"dx":0.0025,"nx":19,"ny":19,"refTime":"2026-04-19T21:00:00:Z","depth":0,"parameterNumber":3,"parameterNumberName":"V-component_of_WINDS"},"data":[0,0,0,0.1585,0.1584,0.1547,0.1547,0.1527,0.1527,0,0,0,0,0,0,0,0,0,0,0,0.1611,0.1612,0.1585,0.1584,0.1547,0.1547,0.1527,0.1527,0,0,0,0,0,0,0,0,0,0,0,0.1611,0.1612,0.1612,0.1584,0.1547,0.1547,0.1527,0.1545,0,0,0,0,0,0,0,0,0,0,0.1577,0.1616,0.1611,0.1612,0.1584,0.1547,0.1547,0.1546,0.1544,0.1555,0,0.1568,0,0.1548,0.1527,0.1527,0,0,0,0.1573,0.1618,0.1594,0.1612,0.1584,0.1547,0.1561,0.1545,0.1543,0.1554,0.1568,0.1566,0.1547,0.1527,0.1527,0.1629,0.163,0,0,0.1575,0.1613,0.1595,0.1593,0.1599,0.1562,0.156,0.1543,0.1562,0.1568,0.1565,0.1547,0.1527,0.1527,0.1628,0.1629,0,0,0,0.1588,0.1615,0.1591,0.1595,0.1586,0.1561,0.1558,0.1562,0.1551,0.1565,0.1547,0.1527,0.1528,0.1627,0.1629,0.1718,0,0,0,0.1589,0.1623,0.1592,0.1615,0.1587,0.1573,0.1579,0.1552,0.1549,0.1547,0.1527,0.1528,0.1626,0.1628,0.1713,0.1754,0,0,0,0.1608,0.1625,0.1625,0.1617,0.1603,0.1573,0.156,0.1551,0.1539,0.1527,0.1528,0.1625,0.1627,0.1708,0.1746,0.1794,0,0,0,0.164,0.1703,0.1627,0.169,0.1603,0.1627,0.156,0.1576,0.1576,0.1528,0.1626,0.1628,0.1707,0.1742,0.1789,0.1842,0.1867,0,0,0.1741,0.1716,0.1751,0.1681,0.1729,0.163,0.169,0.1655,0.1618,0.1628,0.163,0.1714,0.1746,0.1793,0.199,0.201,0,0,0,0.1796,0.1821,0.1825,0.1828,0.1802,0.1785,0.1735,0.1722,0.1729,0.1631,0.1741,0.1759,0.1785,0.1809,0.1826,0.1848,0.164,0.164,0.164,0.1994,0.1945,0.1999,0.1946,0.195,0.1899,0.1899,0.1873,0.1821,0.1848,0.1852,0.1977,0.2006,0.2019,0.2042,0.1873,0.1874,0.1874,0.1874,0.214,0.2169,0.21,0.2128,0.2077,0.21,0.2055,0.2018,0.2034,0.197,0.199,0.1928,0.2043,0.206,0.188,0.1879,0.1879,0.1878,0.1878,0.2266,0.2272,0.2255,0.2256,0.2262,0.2205,0.2225,0.2176,0.213,0.215,0.215,0.2149,0.2144,0.2153,0.2154,0.2154,0.2154,0.2155,0.2155,0.2406,0.2383,0.2405,0.2385,0.2381,0.2371,0.2322,0.2318,0.2301,0.2264,0.2264,0.2212,0.2062,0.2027,0.2162,0.216,0.216,0.2159,0.2159,0.2576,0.253,0.2563,0.256,0.2533,0.2545,0.2482,0.2478,0.2467,0.2479,0.2422,0.2318,0.229,0.2276,0.2247,0.243,0.243,0.243,0.243,0.2685,0.2665,0.269,0.2689,0.2682,0.2629,0.2672,0.2635,0.259,0.2581,0.2547,0.2503,0.2491,0.247,0.2452,0.2424,0.2649,0.2649,0.2649,0.2788,0.2766,0.2811,0.2766,0.2742,0.2723,0.2762,0.2765,0.2704,0.2657,0.2574,0.2565,0.2493,0.2472,0.2426,0.2398,0.2346,0,0]}]]